Regional Weather Roundup
Issued by NWS

Home | Current Version | Previous Version | Graphics & Text | Print | Product List | Glossary On
Versions: 1 2 3 4 5 6 7 8 9 10 11 12 13 14 15 16 17 18 19 20 21 22 23 24 25 26 27 28 29 30 31 32 33 34 35 36 37 38 39 40 41 42 43 44 45 46 47 48 49 50
000
ASUS45 KCYS 300310
RWRWY

WYOMING REGIONAL WEATHER ROUNDUP
NATIONAL WEATHER SERVICE CHEYENNE WY
900 PM MDT SUN MAR 29 2015

NOTE:  "FAIR" INDICATES FEW OR NO CLOUDS BELOW 12,000 FEET
WITH NO SIGNIFICANT WEATHER AND/OR OBSTRUCTIONS TO VISIBILITY.

WYZ001-300400-
YELLOWSTONE NATIONAL PARK

CITY           SKY/WX    TMP DP  RH WIND       PRES   REMARKS
LK YELLOWSTONE   N/A     30  18  60 NW3       30.28R
W YELLOWSTONE  NOT AVBL

$$
WYZ002>013-054>058-071-098>099-300400-
NORTHERN WYOMING

CITY           SKY/WX    TMP DP  RH WIND       PRES   REMARKS
JACKSON        FAIR      43  21  42 W9        30.23R
CODY           FAIR      55  12  18 W14G24    30.10R
GREYBULL       FAIR      55  17  22 CALM      30.06R
WORLAND        FAIR      46  21  37 MISG      30.07R
SHERIDAN       FAIR      40  28  62 CALM      30.05S
BUFFALO        FAIR      50  24  36 CALM      30.09R
GILLETTE       FAIR      37  26  64 SW3       30.07S
HULETT         FAIR      46  27  46 S7        30.08R
NEWCASTLE      FAIR      50  23  34 N7        30.09R

$$
WYZ014>020-022>026-101>103-300400-
CENTRAL WYOMING

CITY           SKY/WX    TMP DP  RH WIND       PRES   REMARKS
BIG PINEY      FAIR      42  15  33 N13       30.25R
PINEDALE       MOCLDY    36  18  48 W7        30.26S WCI  30
DUBOIS         FAIR      43  14  31 NW13G23   30.20R
LANDER         FAIR      53  12  19 SW13      30.09R
RIVERTON       FAIR      52  13  21 NW13      30.12R
CASPER         FAIR      41  18  39 CALM      30.12R
DOUGLAS        FAIR      49  19  30 S3        30.12S

$$
WYZ021-027>030-104>119-300400-
SOUTHERN WYOMING

CITY           SKY/WX    TMP DP  RH WIND       PRES   REMARKS
EVANSTON       FAIR      43  15  32 W10       30.29R
KEMMERER       FAIR      41  12  30 N7        30.28R
FORT BRIDGER   FAIR      47  14  26 NW7       30.30R
ROCK SPRINGS   FAIR      50  12  21 VRB3      30.23R
DIXON          FAIR      46  18  32 CALM      30.24R
RAWLINS        FAIR      43   8  23 NW6       30.20R
SARATOGA       FAIR      41  12  30 W7        30.24R
LARAMIE        FAIR      44  12  27 W5        30.21R
CHEYENNE       FAIR      47  23  38 SW10      30.18R
TORRINGTON     FAIR      53  21  28 SE12      30.09F
PINE BLUFFS    FAIR      43  21  42 S8        30.16R

$$


USA.gov is the U.S. government's official web portal to all federal, state and local government web resources and services.